Location: ?????
(42.2640°N, 43.4211°E)
Time: 15:20:32
(UTC+00:00)

CZ-2D R/B - Pass Details

Date: 07 August 2020
Orbit: 792 x 845 km, 98.7° (Epoch: 19 September)

Event Time Altitude Azimuth Distance (km) Brightness Sun altitude
Rises 00:29:29 0° 355° (N) 3,408 5.9 -15.9°
Reaches altitude 10° 00:33:05 10° 331° (NNW) 2,472 4.8 -15.4°
Maximum altitude 00:35:39 14° 303° (WNW) 2,222 4.2 -15.0°
Enters shadow 00:38:04 10° 276° (W) 2,439 4.2 -14.7°
